Weather History for KHWY - November, 2013

Change the Weather History Date:

Sunday, November 10, 2013

  Actual Average (KDCA) Record (KDCA)
Temperature  
Mean Temperature 49 °F 52 °F  
Max Temperature 68 °F 60 °F 76 °F (1999)
Min Temperature 30 °F 43 °F 27 °F (1914)
Degree Days  
Heating Degree Days 16 14  
Month to date heating degree days 122  
Since 1 July heating degree days 351  
Cooling Degree Days 0 0  
Month to date cooling degree days 0  
Year to date cooling degree days 1547  
Moisture  
Dew Point 35 °F    
Average Humidity 63    
Maximum Humidity 100    
Minimum Humidity 30    
Precipitation  
Precipitation 0.00 in 0.10 in 1.77 in (1990)
Month to date precipitation 1.09  
Year to date precipitation 34.61  
Snow  
Snow 0.00 in 0.00 in T in (1987)
Month to date snowfall 0.1  
Since 1 July snowfall 0.1  
Snow Depth -    
Sea Level Pressure  
Sea Level Pressure 30.08 in    
Wind  
Wind Speed 6 mph (West)    
Max Wind Speed 21 mph    
Max Gust Speed 31 mph    
Visibility 10 miles    
Events      
T = Trace of Precipitation, MM = Missing Value Source: NWS Daily Summary

Daily Weather History Graph

Daily Weather History Graph

Search for Another Location

Airport or City:

Trip Planner

Search our weather history database for the weather conditions in past years. The results will help you decide how hot, cold, wet, or windy it might be!

Date:

Astronomy

Nov. 10, 2013 Rise Set
Actual Time 6:47 AM EST 5:01 PM EST
Civil Twilight 6:19 AM EST 5:29 PM EST
Nautical Twilight 5:47 AM EST 6:01 PM EST
Astronomical Twilight 5:16 AM EST 6:32 PM EST
Moon 1:01 PM EST (11/10) No Moon Set
Length of Visible Light 11h 10m
Length of Day
10h 13m
First Quarter, 55% of the Moon is Illuminated
Nov 10
First Quarter
Nov 17
Full
Nov 25
Last Quarter
Dec 2
New
Dec 9
First Quarter

Hourly Weather History & Observations

Time (EST) Temp. Windchill Dew Point Humidity Pressure Visibility Wind Dir Wind Speed Gust Speed Precip Events Conditions
12:15 AM 44.1 °F 40.8 °F 33.6 °F 67% 30.04 in 10.0 mi SSW 5.8 mph - N/A   Clear
12:35 AM 43.2 °F 40.5 °F 33.3 °F 68% 30.04 in 10.0 mi SSW 4.6 mph - N/A   Clear
12:55 AM 42.8 °F 40.1 °F 33.4 °F 70% 30.04 in 10.0 mi SW 4.6 mph - N/A   Clear
1:15 AM 42.8 °F 40.1 °F 33.4 °F 70% 30.04 in 10.0 mi SSW 4.6 mph - N/A   Clear
1:35 AM 41.7 °F 39.8 °F 33.1 °F 71% 30.04 in 10.0 mi SSW 3.5 mph - N/A   Clear
1:55 AM 41.0 °F - 33.1 °F 73% 30.04 in 10.0 mi Calm Calm - N/A   Clear
2:15 AM 41.0 °F 38.0 °F 33.1 °F 73% 30.04 in 10.0 mi SSW 4.6 mph - N/A   Clear
2:35 AM 36.0 °F - 32.2 °F 86% 30.04 in 10.0 mi Calm Calm - N/A   Clear
2:55 AM 35.2 °F 32.4 °F 32.2 °F 89% 30.03 in 10.0 mi SSW 3.5 mph - N/A   Clear
3:15 AM 36.0 °F 33.3 °F 32.4 °F 87% 30.03 in 10.0 mi South 3.5 mph - N/A   Clear
3:35 AM 40.1 °F 38.0 °F 33.1 °F 76% 30.03 in 10.0 mi SSW 3.5 mph - N/A   Clear
3:55 AM 39.2 °F - 32.9 °F 78% 30.02 in 10.0 mi Calm Calm - N/A   Clear
4:15 AM 37.6 °F - 32.9 °F 83% 30.02 in 10.0 mi Calm Calm - N/A   Clear
4:35 AM 34.5 °F - 32.4 °F 92% 30.02 in 10.0 mi Calm Calm - N/A   Clear
4:55 AM 32.4 °F - 31.6 °F 97% 30.02 in 10.0 mi Calm Calm - N/A   Clear
5:15 AM 32.2 °F - 32.0 °F 99% 30.03 in 10.0 mi Calm Calm - N/A   Clear
5:35 AM 32.9 °F - 32.0 °F 96% 30.03 in 10.0 mi Calm Calm - N/A   Clear
5:55 AM 32.0 °F - 31.8 °F 99% 30.03 in 10.0 mi Calm Calm - N/A   Clear
6:15 AM 30.7 °F - 30.7 °F 100% 30.03 in 10.0 mi Calm Calm - N/A   Clear
6:35 AM 31.1 °F - 31.1 °F 100% 30.03 in 10.0 mi Calm Calm - N/A   Clear
6:55 AM 31.6 °F - 31.6 °F 100% 30.03 in 10.0 mi Calm Calm - N/A   Clear
7:15 AM 33.1 °F - 32.0 °F 96% 30.03 in 10.0 mi Calm Calm - N/A   Clear
7:35 AM 36.1 °F - 34.2 °F 93% 30.04 in 10.0 mi Calm Calm - N/A   Clear
7:55 AM 40.3 °F - 37.6 °F 90% 30.04 in 10.0 mi Calm Calm - N/A   Clear
8:15 AM 44.4 °F - 37.2 °F 76% 30.04 in 10.0 mi Calm Calm - N/A   Clear
8:35 AM 48.6 °F - 37.8 °F 66% 30.04 in 10.0 mi Calm Calm - N/A   Clear
8:55 AM 51.8 °F - 39.2 °F 62% 30.03 in 10.0 mi SSW 4.6 mph - N/A   Clear
9:15 AM 54.1 °F - 40.3 °F 59% 30.02 in 10.0 mi SW 5.8 mph - N/A   Clear
9:35 AM 57.2 °F - 41.5 °F 56% 30.02 in 10.0 mi WSW 6.9 mph - N/A   Clear
9:55 AM 59.9 °F - 42.3 °F 52% 30.01 in 10.0 mi SW 9.2 mph - N/A   Clear
10:15 AM 61.9 °F - 43.0 °F 50% 30.00 in 10.0 mi SSW 11.5 mph 16.1 mph N/A   Clear
10:35 AM 62.8 °F - 41.9 °F 46% 30.00 in 10.0 mi SW 12.7 mph 19.6 mph N/A   Clear
10:55 AM 64.2 °F - 41.4 °F 43% 29.99 in 10.0 mi WSW 11.5 mph 18.4 mph N/A   Clear
11:15 AM 64.0 °F - 40.5 °F 42% 29.99 in 10.0 mi SW 9.2 mph 20.7 mph N/A   Clear
11:35 AM 64.9 °F - 41.5 °F 42% 29.99 in 10.0 mi SW 8.1 mph 18.4 mph N/A   Clear
11:55 AM 66.0 °F - 41.4 °F 41% 29.98 in 10.0 mi WSW 9.2 mph - N/A   Clear
12:15 PM 66.2 °F - 39.9 °F 38% 29.97 in 10.0 mi WSW 6.9 mph - N/A   Clear
12:35 PM 68.2 °F - 37.9 °F 33% 29.97 in 10.0 mi WNW 10.4 mph 17.3 mph N/A   Clear
12:55 PM 68.5 °F - 36.0 °F 30% 29.96 in 10.0 mi WNW 17.3 mph 20.7 mph N/A   Clear
1:15 PM 68.0 °F - 35.2 °F 30% 29.96 in 10.0 mi West 8.1 mph 20.7 mph N/A   Clear
1:35 PM 68.0 °F - 35.8 °F 31% 29.96 in 10.0 mi West 11.5 mph 21.9 mph N/A   Clear
1:55 PM 67.8 °F - 35.1 °F 30% 29.97 in 10.0 mi WNW 16.1 mph 24.2 mph N/A   Clear
2:15 PM 68.0 °F - 36.9 °F 32% 29.98 in 10.0 mi WNW 11.5 mph 17.3 mph N/A   Clear
2:35 PM 66.0 °F - 36.7 °F 34% 29.98 in 10.0 mi NNW 13.8 mph 23.0 mph N/A   Clear
2:55 PM 65.3 °F - 36.7 °F 35% 30.00 in 10.0 mi NW 18.4 mph - N/A   Clear
3:15 PM 63.9 °F - 37.4 °F 38% 30.01 in 10.0 mi NNW 18.4 mph - N/A   Clear
3:35 PM 62.1 °F - 37.8 °F 41% 30.03 in 10.0 mi NNW 19.6 mph 24.2 mph N/A   Clear
3:55 PM 59.5 °F - 37.0 °F 43% 30.05 in 10.0 mi NNW 20.7 mph 26.5 mph N/A   Clear
4:15 PM 57.6 °F - 35.8 °F 44% 30.07 in 10.0 mi NW 18.4 mph 27.6 mph N/A   Clear
4:35 PM 55.9 °F - 34.7 °F 45% 30.08 in 10.0 mi NW 18.4 mph 25.3 mph N/A   Clear
4:55 PM 54.5 °F - 33.4 °F 45% 30.09 in 10.0 mi NNW 16.1 mph 27.6 mph N/A   Clear
5:15 PM 52.3 °F - 33.6 °F 49% 30.11 in 10.0 mi NNW 15.0 mph - N/A   Clear
5:35 PM 51.1 °F - 33.3 °F 51% 30.12 in 10.0 mi NNW 16.1 mph - N/A   Clear
5:55 PM 51.6 °F - 32.4 °F 48% 30.14 in 10.0 mi NNW 17.3 mph 26.5 mph N/A   Clear
6:15 PM 50.9 °F - 32.0 °F 48% 30.16 in 10.0 mi NNW 19.6 mph 25.3 mph N/A   Clear
6:35 PM 50.2 °F - 32.0 °F 50% 30.18 in 10.0 mi NNW 16.1 mph 31.1 mph N/A   Clear
6:55 PM 49.1 °F - 31.8 °F 51% 30.21 in 10.0 mi NNW 6.9 mph 16.1 mph N/A   Clear
7:15 PM 48.2 °F - 31.6 °F 53% 30.21 in 10.0 mi NNW 10.4 mph 23.0 mph N/A   Clear
7:35 PM 47.1 °F - 31.1 °F 54% 30.22 in 10.0 mi NNW 4.6 mph - N/A   Clear
7:55 PM 44.1 °F 40.1 °F 31.1 °F 60% 30.22 in 10.0 mi NW 6.9 mph - N/A   Clear
8:15 PM 42.6 °F 39.0 °F 31.1 °F 64% 30.22 in 10.0 mi NW 5.8 mph - N/A   Clear
8:35 PM 44.1 °F 39.5 °F 31.6 °F 62% 30.23 in 10.0 mi NW 8.1 mph - N/A   Clear
8:55 PM 44.1 °F 39.5 °F 31.8 °F 62% 30.24 in 10.0 mi NW 8.1 mph - N/A   Clear
9:15 PM 45.1 °F 40.3 °F 31.6 °F 59% 30.25 in 10.0 mi NW 9.2 mph - N/A   Clear
9:35 PM 43.3 °F 39.9 °F 31.5 °F 63% 30.24 in 10.0 mi WNW 5.8 mph - N/A   Clear
9:55 PM 41.5 °F 39.6 °F 31.5 °F 67% 30.24 in 10.0 mi West 3.5 mph - N/A   Clear
10:15 PM 42.1 °F - 31.6 °F 67% 30.25 in 10.0 mi Calm Calm - N/A   Clear
10:35 PM 37.0 °F 34.5 °F 31.3 °F 80% 30.24 in 10.0 mi SSW 3.5 mph - N/A   Clear
10:55 PM 39.4 °F 34.5 °F 31.1 °F 72% 30.24 in 10.0 mi SSW 6.9 mph - N/A   Clear
11:15 PM 40.5 °F - 31.1 °F 69% 30.25 in 10.0 mi Calm Calm - N/A   Clear
11:35 PM 41.9 °F 40.0 °F 30.9 °F 65% 30.25 in 10.0 mi WSW 3.5 mph - N/A   Clear
11:55 PM 34.9 °F 29.9 °F 30.6 °F 84% 30.25 in 10.0 mi WNW 5.8 mph - N/A   Clear